Weather History for HKNC - October, 2012

Change the Weather History Date:

Saturday, October 6, 2012

  Actual Average Record
Temperature  
Mean Temperature 68 °F -  
Max Temperature 78 °F - - ()
Min Temperature 59 °F - - ()
Cooling Degree Days 4    
Growing Degree Days 18 (Base 50)    
Moisture  
Dew Point 54 °F    
Average Humidity 66    
Maximum Humidity 94    
Minimum Humidity 36    
Precipitation  
Precipitation 0.00 in - - ()
Sea Level Pressure  
Sea Level Pressure 30.18 in    
Wind  
Wind Speed 7 mph ()    
Max Wind Speed 15 mph    
Max Gust Speed -    
Visibility 6.2 miles    
Events      
T = Trace of Precipitation, MM = Missing Value Source: Averaged Metar Reports

Daily Weather History Graph

Daily Weather History Graph

Search for Another Location

Airport or City:

Trip Planner

Search our weather history database for the weather conditions in past years. The results will help you decide how hot, cold, wet, or windy it might be!

Date:

Astronomy

Oct. 06, 2012 Rise Set
Actual Time 6:17 AM EAT 6:24 PM EAT
Civil Twilight 5:56 AM EAT 6:45 PM EAT
Nautical Twilight 5:32 AM EAT 7:09 PM EAT
Astronomical Twilight 5:08 AM EAT 7:33 PM EAT
Moon 11:22 PM EAT (10/6) 10:53 AM EAT (10/6)
Length of Visible Light 12h 49m
Length of Day
12h 07m
Waning Gibbous, 68% of the Moon is Illuminated
Oct 6
Waning Gibbous
Oct 8
Last Quarter
Oct 15
New
Oct 22
First Quarter
Oct 29
Full

Hourly Weather History & Observations

Time (EAT) Temp. Dew Point Humidity Pressure Visibility Wind Dir Wind Speed Gust Speed Precip Events Conditions
12:00 AM 64.4 °F 53.6 °F 68% 30.18 in 6.2 mi NE 9.2 mph - N/A   Mostly Cloudy
1:00 AM 62.6 °F 55.4 °F 77% 30.18 in 6.2 mi East 10.4 mph - N/A   Mostly Cloudy
2:00 AM 62.6 °F 55.4 °F 77% 30.18 in 6.2 mi ENE 8.1 mph - N/A   Mostly Cloudy
3:00 AM 60.8 °F 55.4 °F 82% 30.15 in 6.2 mi NNE 6.9 mph - N/A   Mostly Cloudy
4:00 AM 60.8 °F 55.4 °F 82% 30.15 in 6.2 mi NE 9.2 mph - N/A   Mostly Cloudy
5:00 AM 59.0 °F 55.4 °F 88% 30.18 in 6.2 mi East 5.8 mph - N/A   Mostly Cloudy
6:00 AM 59.0 °F 57.2 °F 94% 30.18 in 6.2 mi East 4.6 mph - N/A   Mostly Cloudy
7:00 AM 60.8 °F 57.2 °F 88% 30.21 in 6.2 mi East 4.6 mph - N/A   Mostly Cloudy
8:00 AM 60.8 °F 57.2 °F 88% 30.24 in 6.2 mi NE 4.6 mph - N/A   Mostly Cloudy
9:00 AM 62.6 °F 55.4 °F 77% 30.27 in 6.2 mi ENE 6.9 mph - N/A   Mostly Cloudy
10:00 AM 66.2 °F 55.4 °F 68% 30.27 in 6.2 mi ENE 6.9 mph - N/A   Mostly Cloudy
11:00 AM 66.2 °F 55.4 °F 68% 30.27 in 6.2 mi ENE 6.9 mph - N/A   Mostly Cloudy
12:00 PM 73.4 °F 55.4 °F 53% 30.21 in 6.2 mi NE 6.9 mph - N/A   Partly Cloudy
1:00 PM 77.0 °F 55.4 °F 47% 30.18 in 6.2 mi ESE 9.2 mph - N/A   Partly Cloudy
2:00 PM 78.8 °F 51.8 °F 39% 30.15 in 6.2 mi SW 9.2 mph - N/A   Scattered Clouds
3:00 PM 78.8 °F 50.0 °F 36% 30.12 in 6.2 mi NE 15.0 mph - N/A   Scattered Clouds
4:00 PM 77.0 °F 51.8 °F 41% 30.09 in 6.2 mi SE 5.8 mph - N/A   Mostly Cloudy
5:00 PM 77.0 °F 51.8 °F 41% 30.12 in 6.2 mi East 8.1 mph - N/A   Mostly Cloudy
7:00 PM 71.6 °F 51.8 °F 50% 30.15 in 6.2 mi NE 9.2 mph - N/A   Mostly Cloudy
8:00 PM 69.8 °F 53.6 °F 56% 30.15 in 6.2 mi East 8.1 mph - N/A   Mostly Cloudy
10:00 PM 68.0 °F 53.6 °F 60% 30.18 in 6.2 mi ESE 15.0 mph - N/A   Mostly Cloudy
11:00 PM 66.2 °F 53.6 °F 64% 30.18 in 6.2 mi ENE 11.5 mph - N/A   Mostly Cloudy